P4MALC KMHT-CYHZ

Flight info

Callsign P4MALC
Flight time 2h 15m
Altitude 17000
Route MHT DCT BGR DCT CYSJ DCT YHZ
Aircraft B36T/L-BDFGLORY/S

Departure

Time 2026-04-24 19:08
Airport Manchester-Boston Regional Airport (KMHT)

Arrival

Time 2026-04-24 21:23
Airport Halifax / Stanfield International Airport (CYHZ)
Time Latitude Longitude Altitude Speed Heading
2026-04-24 18:54 42.93305 -71.43157 230 ft 0 kts 336°
2026-04-24 19:00 42.93328 -71.43172 230 ft 8 kts 328°
2026-04-24 19:00 42.93333 -71.43251 230 ft 10 kts 229°
2026-04-24 19:00 42.93232 -71.43234 231 ft 20 kts 154°
2026-04-24 19:00 42.93080 -71.43144 233 ft 27 kts 156°
2026-04-24 19:01 42.92917 -71.43046 233 ft 23 kts 158°
2026-04-24 19:01 42.92817 -71.42995 233 ft 11 kts 177°
2026-04-24 19:01 42.92786 -71.43011 233 ft 0 kts 221°
2026-04-24 19:07 42.92783 -71.43014 233 ft 4 kts 221°
2026-04-24 19:07 42.92758 -71.43092 233 ft 9 kts 263°
2026-04-24 19:07 42.92781 -71.43132 233 ft 8 kts 337°
2026-04-24 19:07 42.92915 -71.43213 231 ft 58 kts 337°
2026-04-24 19:08 42.93419 -71.43512 457 ft 87 kts 335°
2026-04-24 19:08 42.93989 -71.43834 1025 ft 85 kts 338°
2026-04-24 19:08 42.94531 -71.44190 1599 ft 91 kts 336°
2026-04-24 19:08 42.95044 -71.44562 2264 ft 76 kts 335°
2026-04-24 19:09 42.95520 -71.44903 2870 ft 76 kts 335°
2026-04-24 19:09 42.95982 -71.45258 3363 ft 85 kts 333°
2026-04-24 19:09 42.96576 -71.45679 3788 ft 104 kts 335°
2026-04-24 19:09 42.97279 -71.46131 4242 ft 115 kts 336°
2026-04-24 19:10 42.98008 -71.46623 4790 ft 105 kts 335°
2026-04-24 19:10 42.98532 -71.46980 5631 ft 86 kts 335°
2026-04-24 19:10 42.99144 -71.47374 6042 ft 94 kts 337°
2026-04-24 19:10 42.99720 -71.47717 6543 ft 101 kts 338°
2026-04-24 19:11 43.00265 -71.48047 7217 ft 89 kts 339°
2026-04-24 19:11 43.00822 -71.48390 7840 ft 80 kts 337°
2026-04-24 19:11 43.01392 -71.48766 8248 ft 94 kts 335°
2026-04-24 19:11 43.01921 -71.49146 8930 ft 86 kts 335°
2026-04-24 19:12 43.02310 -71.49438 9135 ft 103 kts 336°
2026-04-24 19:12 43.03270 -71.49854 9593 ft 119 kts 11°
2026-04-24 19:12 43.03738 -71.49388 9849 ft 134 kts 46°
2026-04-24 19:12 43.04576 -71.48188 10348 ft 132 kts 31°
2026-04-24 19:13 43.05041 -71.47629 10602 ft 135 kts 33°
2026-04-24 19:13 43.05722 -71.46728 10993 ft 138 kts 35°
2026-04-24 19:13 43.06404 -71.45793 11393 ft 139 kts 34°
2026-04-24 19:13 43.07086 -71.44850 11810 ft 139 kts 33°
2026-04-24 19:14 43.07744 -71.43932 12390 ft 129 kts 32°
2026-04-24 19:14 43.08339 -71.43098 13076 ft 113 kts 29°
2026-04-24 19:14 43.08831 -71.42406 13834 ft 89 kts 24°
2026-04-24 19:14 43.09227 -71.41868 14370 ft 77 kts 19°
2026-04-24 19:15 43.09641 -71.41310 14665 ft 92 kts 22°
2026-04-24 19:15 43.10135 -71.40626 14919 ft 109 kts 26°
2026-04-24 19:15 43.10673 -71.39871 15235 ft 116 kts 26°
2026-04-24 19:15 43.11261 -71.39052 15584 ft 120 kts 27°
2026-04-24 19:16 43.12410 -71.37445 16396 ft 117 kts 25°
2026-04-24 19:16 43.12981 -71.36651 16811 ft 117 kts 25°
2026-04-24 19:16 43.13587 -71.35828 17003 ft 134 kts 26°
2026-04-24 19:17 43.14298 -71.34849 17012 ft 155 kts 29°
2026-04-24 19:17 43.15089 -71.33737 17010 ft 169 kts 30°
2026-04-24 19:17 43.15918 -71.32562 17008 ft 173 kts 30°
2026-04-24 19:17 43.16769 -71.31373 17005 ft 176 kts 31°
2026-04-24 19:18 43.17635 -71.30164 17007 ft 179 kts 31°
2026-04-24 19:18 43.18501 -71.28953 17001 ft 181 kts 31°
2026-04-24 19:18 43.19383 -71.27720 17009 ft 181 kts 31°
2026-04-24 19:18 43.20267 -71.26483 17003 ft 182 kts 31°
2026-04-24 19:19 43.21155 -71.25241 16998 ft 182 kts 31°
2026-04-24 19:19 43.22042 -71.24000 17002 ft 182 kts 31°
2026-04-24 19:19 43.22935 -71.22750 17001 ft 183 kts 31°
2026-04-24 19:19 43.23827 -71.21501 16998 ft 183 kts 31°
2026-04-24 19:20 43.24707 -71.20270 16993 ft 183 kts 31°
2026-04-24 19:20 43.25596 -71.19023 16994 ft 183 kts 31°
2026-04-24 19:20 43.26487 -71.17774 16994 ft 183 kts 31°
2026-04-24 19:20 43.27375 -71.16528 16997 ft 183 kts 31°
2026-04-24 19:21 43.28267 -71.15278 16992 ft 183 kts 31°
2026-04-24 19:21 43.29156 -71.14029 16994 ft 183 kts 31°
2026-04-24 19:21 43.30043 -71.12782 16996 ft 182 kts 31°
2026-04-24 19:21 43.30927 -71.11541 16999 ft 182 kts 31°
2026-04-24 19:22 43.31512 -71.10719 16993 ft 182 kts 31°
2026-04-24 19:22 43.32690 -71.09061 16999 ft 181 kts 31°
2026-04-24 19:22 43.33572 -71.07821 16995 ft 182 kts 31°
2026-04-24 19:22 43.34455 -71.06579 16998 ft 181 kts 31°
2026-04-24 19:23 43.35334 -71.05341 17003 ft 181 kts 31°
2026-04-24 19:23 43.36214 -71.04102 16998 ft 182 kts 31°
2026-04-24 19:23 43.37096 -71.02858 16999 ft 182 kts 32°
2026-04-24 19:23 43.37977 -71.01615 16996 ft 181 kts 31°
2026-04-24 19:24 43.38867 -71.00364 16920 ft 184 kts 32°
2026-04-24 19:24 43.39749 -70.99118 16912 ft 183 kts 32°
2026-04-24 19:24 43.40632 -70.97866 16911 ft 181 kts 32°
2026-04-24 19:24 43.41512 -70.96625 16910 ft 181 kts 32°
2026-04-24 19:25 43.42394 -70.95380 16908 ft 182 kts 32°
2026-04-24 19:25 43.43282 -70.94125 16909 ft 182 kts 32°
2026-04-24 19:25 43.44163 -70.92877 16910 ft 181 kts 32°
2026-04-24 19:25 43.45043 -70.91631 16924 ft 181 kts 32°
2026-04-24 19:26 43.45919 -70.90392 16926 ft 180 kts 32°
2026-04-24 19:26 43.46789 -70.89158 16925 ft 180 kts 32°
2026-04-24 19:26 43.47652 -70.87938 16926 ft 180 kts 32°
2026-04-24 19:26 43.48525 -70.86701 16925 ft 180 kts 32°
2026-04-24 19:27 43.49400 -70.85460 16927 ft 180 kts 32°
2026-04-24 19:27 43.50271 -70.84223 16928 ft 180 kts 32°
2026-04-24 19:27 43.51144 -70.82985 16927 ft 180 kts 32°
2026-04-24 19:27 43.52015 -70.81746 16928 ft 180 kts 32°
2026-04-24 19:28 43.52892 -70.80503 16926 ft 181 kts 32°
2026-04-24 19:28 43.53764 -70.79261 16926 ft 180 kts 32°
2026-04-24 19:28 43.54634 -70.78023 16923 ft 180 kts 32°
2026-04-24 19:28 43.55504 -70.76787 16924 ft 180 kts 32°
2026-04-24 19:29 43.57242 -70.74314 16922 ft 180 kts 32°
2026-04-24 19:29 43.58110 -70.73078 16921 ft 179 kts 32°
2026-04-24 19:29 43.58976 -70.71841 16922 ft 179 kts 32°
2026-04-24 19:30 43.59843 -70.70605 16927 ft 179 kts 32°
2026-04-24 19:30 43.60701 -70.69382 16924 ft 179 kts 32°
2026-04-24 19:30 43.61574 -70.68138 16927 ft 180 kts 32°
2026-04-24 19:30 43.62444 -70.66896 16924 ft 180 kts 32°
2026-04-24 19:31 43.63315 -70.65650 16922 ft 180 kts 32°
2026-04-24 19:31 43.64183 -70.64410 16921 ft 180 kts 32°
2026-04-24 19:31 43.65050 -70.63170 16922 ft 180 kts 32°
2026-04-24 19:31 43.65917 -70.61930 16925 ft 179 kts 32°
2026-04-24 19:32 43.66786 -70.60687 16925 ft 179 kts 32°
2026-04-24 19:32 43.67650 -70.59450 16926 ft 179 kts 32°
2026-04-24 19:32 43.68518 -70.58207 16924 ft 180 kts 32°
2026-04-24 19:32 43.69386 -70.56963 16928 ft 180 kts 32°
2026-04-24 19:33 43.70253 -70.55720 16928 ft 180 kts 32°
2026-04-24 19:33 43.71111 -70.54490 16930 ft 179 kts 32°
2026-04-24 19:33 43.71977 -70.53247 16925 ft 179 kts 32°
2026-04-24 19:33 43.72853 -70.51991 16926 ft 179 kts 32°
2026-04-24 19:34 43.73708 -70.50763 16923 ft 179 kts 32°
2026-04-24 19:34 43.74576 -70.49515 16928 ft 179 kts 32°
2026-04-24 19:34 43.75440 -70.48274 16929 ft 179 kts 32°
2026-04-24 19:34 43.76303 -70.47033 16929 ft 179 kts 33°
2026-04-24 19:35 43.77168 -70.45789 16925 ft 179 kts 32°
2026-04-24 19:35 43.78035 -70.44541 16926 ft 179 kts 33°
2026-04-24 19:35 43.78899 -70.43297 16931 ft 179 kts 33°
2026-04-24 19:35 43.79760 -70.42056 16929 ft 178 kts 33°
2026-04-24 19:36 43.80621 -70.40817 16928 ft 179 kts 33°
2026-04-24 19:36 43.81486 -70.39570 16930 ft 179 kts 33°
2026-04-24 19:36 43.82340 -70.38337 16930 ft 179 kts 33°
2026-04-24 19:36 43.83202 -70.37094 16929 ft 179 kts 33°
2026-04-24 19:37 43.84064 -70.35849 16929 ft 179 kts 33°
2026-04-24 19:37 43.84932 -70.34596 16931 ft 179 kts 33°
2026-04-24 19:37 43.85796 -70.33347 16929 ft 180 kts 33°
2026-04-24 19:37 43.86662 -70.32096 16928 ft 180 kts 33°
2026-04-24 19:38 43.87525 -70.30846 16931 ft 179 kts 33°
2026-04-24 19:38 43.88390 -70.29596 16928 ft 179 kts 33°
2026-04-24 19:38 43.89252 -70.28348 16929 ft 179 kts 33°
2026-04-24 19:38 43.90103 -70.27115 16931 ft 179 kts 33°
2026-04-24 19:39 43.90962 -70.25871 16932 ft 179 kts 33°
2026-04-24 19:39 43.91824 -70.24622 16931 ft 179 kts 33°
2026-04-24 19:39 43.92684 -70.23374 16934 ft 179 kts 33°
2026-04-24 19:39 43.93544 -70.22125 16932 ft 178 kts 33°
2026-04-24 19:40 43.94401 -70.20884 16932 ft 178 kts 33°
2026-04-24 19:40 43.95260 -70.19634 16931 ft 179 kts 33°
2026-04-24 19:40 43.96119 -70.18388 16931 ft 178 kts 33°
2026-04-24 19:40 43.96975 -70.17144 16930 ft 178 kts 33°
2026-04-24 19:41 43.97833 -70.15896 16930 ft 178 kts 33°
2026-04-24 19:41 43.98690 -70.14649 16931 ft 178 kts 33°
2026-04-24 19:41 43.99546 -70.13403 16934 ft 178 kts 33°
2026-04-24 19:41 44.00389 -70.12175 16932 ft 178 kts 33°
2026-04-24 19:42 44.01243 -70.10933 16932 ft 178 kts 33°
2026-04-24 19:42 44.02095 -70.09690 16937 ft 178 kts 33°
2026-04-24 19:42 44.02952 -70.08455 16928 ft 176 kts 31°
2026-04-24 19:42 44.03926 -70.07486 16859 ft 171 kts 20°
2026-04-24 19:43 44.04940 -70.06584 16760 ft 183 kts 34°
2026-04-24 19:43 44.05649 -70.05014 16662 ft 196 kts 49°
2026-04-24 19:43 44.06381 -70.03458 16571 ft 189 kts 39°
2026-04-24 19:43 44.07244 -70.02102 16501 ft 186 kts 36°
2026-04-24 19:44 44.08135 -70.00802 16414 ft 185 kts 33°
2026-04-24 19:44 44.09033 -69.99550 16328 ft 185 kts 34°
2026-04-24 19:44 44.09928 -69.98257 16238 ft 186 kts 35°
2026-04-24 19:44 44.10816 -69.96953 16148 ft 186 kts 35°
2026-04-24 19:45 44.11687 -69.95669 16248 ft 178 kts 35°
2026-04-24 19:45 44.12522 -69.94443 16366 ft 173 kts 34°
2026-04-24 19:45 44.13342 -69.93244 16490 ft 170 kts 34°
2026-04-24 19:45 44.14151 -69.92060 16615 ft 167 kts 34°
2026-04-24 19:46 44.14949 -69.90890 16745 ft 166 kts 33°
2026-04-24 19:46 44.15739 -69.89731 16873 ft 165 kts 33°
2026-04-24 19:46 44.16535 -69.88566 16928 ft 168 kts 33°
2026-04-24 19:46 44.17349 -69.87373 16933 ft 171 kts 34°
2026-04-24 19:47 44.18174 -69.86159 16937 ft 173 kts 34°
2026-04-24 19:47 44.19005 -69.84936 16941 ft 174 kts 34°
2026-04-24 19:47 44.19841 -69.83706 16942 ft 175 kts 34°
2026-04-24 19:47 44.20670 -69.82485 16939 ft 176 kts 34°
2026-04-24 19:48 44.21513 -69.81243 16941 ft 176 kts 34°
2026-04-24 19:48 44.22354 -69.80004 16942 ft 176 kts 34°
2026-04-24 19:48 44.24038 -69.77522 16939 ft 176 kts 34°
2026-04-24 19:49 44.25719 -69.75044 16940 ft 176 kts 34°
2026-04-24 19:49 44.27395 -69.72567 16940 ft 176 kts 34°
2026-04-24 19:50 44.29921 -69.68835 16939 ft 176 kts 34°
2026-04-24 19:50 44.30763 -69.67589 16940 ft 176 kts 34°
2026-04-24 19:51 44.32442 -69.65104 16939 ft 176 kts 34°
2026-04-24 19:51 44.33273 -69.63873 16942 ft 176 kts 34°
2026-04-24 19:52 44.34956 -69.61377 16943 ft 176 kts 35°
2026-04-24 19:52 44.35795 -69.60133 16937 ft 176 kts 35°
2026-04-24 19:52 44.36633 -69.58890 16940 ft 176 kts 35°
2026-04-24 19:52 44.37473 -69.57642 16938 ft 176 kts 35°
2026-04-24 19:53 44.38303 -69.56410 16922 ft 176 kts 35°
2026-04-24 19:53 44.39142 -69.55163 16918 ft 176 kts 35°
2026-04-24 19:53 44.40818 -69.52670 16917 ft 176 kts 35°
2026-04-24 19:54 44.41656 -69.51423 16923 ft 176 kts 35°
2026-04-24 19:54 44.42495 -69.50174 16923 ft 176 kts 35°
2026-04-24 19:54 44.43334 -69.48925 16927 ft 176 kts 35°
2026-04-24 19:54 44.44176 -69.47670 16923 ft 176 kts 35°
2026-04-24 19:55 44.44459 -69.47248 16921 ft 176 kts 35°
2026-04-24 19:55 44.45858 -69.45162 16924 ft 177 kts 35°
2026-04-24 19:55 44.46705 -69.43899 16922 ft 177 kts 36°
2026-04-24 19:55 44.47538 -69.42655 16924 ft 178 kts 36°
2026-04-24 19:56 44.48381 -69.41395 16923 ft 177 kts 36°
2026-04-24 19:56 44.49219 -69.40144 16927 ft 177 kts 36°
2026-04-24 19:56 44.50061 -69.38884 16928 ft 177 kts 36°
2026-04-24 19:56 44.50905 -69.37625 16921 ft 177 kts 36°
2026-04-24 19:57 44.51749 -69.36362 16925 ft 177 kts 36°
2026-04-24 19:57 44.52591 -69.35100 16923 ft 177 kts 36°
2026-04-24 19:57 44.53434 -69.33837 16934 ft 177 kts 36°
2026-04-24 19:57 44.54277 -69.32574 16928 ft 177 kts 36°
2026-04-24 19:58 44.55122 -69.31309 16933 ft 177 kts 36°
2026-04-24 19:58 44.55965 -69.30045 16932 ft 177 kts 36°
2026-04-24 19:58 44.56524 -69.29206 16934 ft 177 kts 36°
2026-04-24 19:58 44.57367 -69.27941 16937 ft 178 kts 36°
2026-04-24 19:59 44.58212 -69.26671 16937 ft 178 kts 36°
2026-04-24 19:59 44.59055 -69.25405 16940 ft 178 kts 36°
2026-04-24 19:59 44.59899 -69.24138 16939 ft 178 kts 36°
2026-04-24 19:59 44.60743 -69.22868 16943 ft 177 kts 36°
2026-04-24 20:00 44.61586 -69.21600 16947 ft 178 kts 36°
2026-04-24 20:00 44.62433 -69.20326 16952 ft 178 kts 36°
2026-04-24 20:00 44.63270 -69.19066 16949 ft 179 kts 37°
2026-04-24 20:00 44.64118 -69.17789 16947 ft 179 kts 37°
2026-04-24 20:01 44.64967 -69.16510 16950 ft 179 kts 37°
2026-04-24 20:01 44.65819 -69.15225 16945 ft 179 kts 37°
2026-04-24 20:01 44.66668 -69.13945 16945 ft 178 kts 37°
2026-04-24 20:01 44.67510 -69.12674 16953 ft 178 kts 37°
2026-04-24 20:02 44.68346 -69.11414 16953 ft 178 kts 37°
2026-04-24 20:02 44.69195 -69.10131 16957 ft 179 kts 37°
2026-04-24 20:02 44.70041 -69.08852 16957 ft 179 kts 37°
2026-04-24 20:02 44.70890 -69.07568 16959 ft 180 kts 37°
2026-04-24 20:03 44.71746 -69.06275 16960 ft 180 kts 37°
2026-04-24 20:03 44.72596 -69.04988 16959 ft 180 kts 37°
2026-04-24 20:03 44.73447 -69.03699 16964 ft 180 kts 37°
2026-04-24 20:03 44.74289 -69.02425 16962 ft 179 kts 37°
2026-04-24 20:04 44.75138 -69.01139 16965 ft 179 kts 37°
2026-04-24 20:04 44.75987 -68.99851 16967 ft 179 kts 37°
2026-04-24 20:04 44.76837 -68.98563 16962 ft 180 kts 38°
2026-04-24 20:04 44.77687 -68.97272 16960 ft 180 kts 38°
2026-04-24 20:05 44.78539 -68.95980 16961 ft 180 kts 38°
2026-04-24 20:05 44.79393 -68.94682 16962 ft 180 kts 38°
2026-04-24 20:05 44.80246 -68.93387 16964 ft 180 kts 38°
2026-04-24 20:05 44.81096 -68.92094 16968 ft 180 kts 38°
2026-04-24 20:06 44.81949 -68.90797 16965 ft 180 kts 38°
2026-04-24 20:06 44.82789 -68.89519 16967 ft 180 kts 38°
2026-04-24 20:06 44.83640 -68.88223 16970 ft 180 kts 38°
2026-04-24 20:06 44.84310 -68.86676 16961 ft 194 kts 61°
2026-04-24 20:07 44.84532 -68.85435 16969 ft 198 kts 66°
2026-04-24 20:07 44.84958 -68.82911 16968 ft 198 kts 65°
2026-04-24 20:07 44.85284 -68.81026 16965 ft 198 kts 65°
2026-04-24 20:07 44.85609 -68.79141 16966 ft 198 kts 65°
2026-04-24 20:08 44.85935 -68.77252 16968 ft 199 kts 65°
2026-04-24 20:08 44.86261 -68.75362 16967 ft 198 kts 65°
2026-04-24 20:08 44.86585 -68.73474 16967 ft 198 kts 66°
2026-04-24 20:08 44.86910 -68.71583 16970 ft 198 kts 66°
2026-04-24 20:09 44.87230 -68.69722 16968 ft 198 kts 66°
2026-04-24 20:09 44.87554 -68.67835 16963 ft 198 kts 66°
2026-04-24 20:09 44.87878 -68.65944 16967 ft 198 kts 66°
2026-04-24 20:09 44.88201 -68.64057 16957 ft 198 kts 66°
2026-04-24 20:10 44.88523 -68.62172 16970 ft 198 kts 66°
2026-04-24 20:10 44.88846 -68.60283 16963 ft 198 kts 66°
2026-04-24 20:10 44.89168 -68.58395 16963 ft 198 kts 66°
2026-04-24 20:10 44.89488 -68.56512 16968 ft 197 kts 66°
2026-04-24 20:11 44.89810 -68.54626 16962 ft 197 kts 66°
2026-04-24 20:11 44.90125 -68.52772 16962 ft 197 kts 66°
2026-04-24 20:11 44.90445 -68.50887 16962 ft 197 kts 66°
2026-04-24 20:11 44.90765 -68.49002 16960 ft 197 kts 66°
2026-04-24 20:12 44.91084 -68.47121 16961 ft 197 kts 66°
2026-04-24 20:12 44.91403 -68.45237 16956 ft 197 kts 66°
2026-04-24 20:12 44.91721 -68.43355 16960 ft 197 kts 66°
2026-04-24 20:12 44.92039 -68.41474 16956 ft 197 kts 66°
2026-04-24 20:13 44.92357 -68.39589 16957 ft 198 kts 66°
2026-04-24 20:13 44.92676 -68.37697 16960 ft 198 kts 67°
2026-04-24 20:13 44.92991 -68.35831 16955 ft 197 kts 67°
2026-04-24 20:13 44.93307 -68.33947 16956 ft 197 kts 67°
2026-04-24 20:14 44.93624 -68.32062 16957 ft 198 kts 67°
2026-04-24 20:14 44.93940 -68.30177 16955 ft 197 kts 67°
2026-04-24 20:14 44.94256 -68.28292 16954 ft 197 kts 67°
2026-04-24 20:14 44.94572 -68.26410 16954 ft 197 kts 67°
2026-04-24 20:15 44.94888 -68.24523 16959 ft 197 kts 67°
2026-04-24 20:15 44.95204 -68.22631 16957 ft 198 kts 67°
2026-04-24 20:15 44.95519 -68.20741 16955 ft 197 kts 67°
2026-04-24 20:15 44.95834 -68.18855 16955 ft 197 kts 67°
2026-04-24 20:16 44.96148 -68.16969 16958 ft 197 kts 67°
2026-04-24 20:16 44.96459 -68.15102 16957 ft 198 kts 67°
2026-04-24 20:16 44.96773 -68.13212 16955 ft 197 kts 67°
2026-04-24 20:16 44.97086 -68.11325 16951 ft 197 kts 68°
2026-04-24 20:17 44.97398 -68.09441 16956 ft 197 kts 68°
2026-04-24 20:17 44.98025 -68.05661 16953 ft 198 kts 68°
2026-04-24 20:17 44.98338 -68.03766 16953 ft 198 kts 68°
2026-04-24 20:18 44.98545 -68.02510 16951 ft 198 kts 68°
2026-04-24 20:18 44.98964 -67.99973 16952 ft 198 kts 68°
2026-04-24 20:18 44.99271 -67.98105 16951 ft 198 kts 68°
2026-04-24 20:18 44.99583 -67.96209 16954 ft 197 kts 68°
2026-04-24 20:19 44.99893 -67.94324 16948 ft 197 kts 68°
2026-04-24 20:19 45.00204 -67.92430 16949 ft 197 kts 68°
2026-04-24 20:19 45.00514 -67.90544 16950 ft 197 kts 68°
2026-04-24 20:19 45.00823 -67.88657 16950 ft 197 kts 68°
2026-04-24 20:20 45.01132 -67.86769 16944 ft 197 kts 68°
2026-04-24 20:20 45.01440 -67.84882 16947 ft 197 kts 68°
2026-04-24 20:20 45.01749 -67.82991 16945 ft 197 kts 68°
2026-04-24 20:20 45.02057 -67.81104 16949 ft 197 kts 68°
2026-04-24 20:21 45.02365 -67.79212 16943 ft 197 kts 68°
2026-04-24 20:21 45.02668 -67.77352 16946 ft 197 kts 68°
2026-04-24 20:21 45.02976 -67.75459 16946 ft 197 kts 68°
2026-04-24 20:21 45.03283 -67.73567 16944 ft 197 kts 68°
2026-04-24 20:22 45.03589 -67.71680 16943 ft 197 kts 68°
2026-04-24 20:22 45.03895 -67.69788 16942 ft 198 kts 69°
2026-04-24 20:22 45.04202 -67.67896 16942 ft 197 kts 69°
2026-04-24 20:22 45.04508 -67.66001 16941 ft 197 kts 69°
2026-04-24 20:23 45.04813 -67.64111 16942 ft 197 kts 69°
2026-04-24 20:23 45.05117 -67.62223 16945 ft 197 kts 69°
2026-04-24 20:23 45.05418 -67.60356 16942 ft 197 kts 69°
2026-04-24 20:23 45.05722 -67.58469 16941 ft 197 kts 69°
2026-04-24 20:24 45.05926 -67.57198 16940 ft 197 kts 69°
2026-04-24 20:24 45.06328 -67.54699 16940 ft 197 kts 69°
2026-04-24 20:24 45.06632 -67.52805 16939 ft 197 kts 69°
2026-04-24 20:24 45.06933 -67.50919 16934 ft 197 kts 69°
2026-04-24 20:25 45.07134 -67.49667 16936 ft 197 kts 69°
2026-04-24 20:25 45.07538 -67.47140 16936 ft 197 kts 69°
2026-04-24 20:25 45.07840 -67.45252 16934 ft 197 kts 70°
2026-04-24 20:25 45.08141 -67.43361 16938 ft 196 kts 70°
2026-04-24 20:26 45.08442 -67.41471 16938 ft 196 kts 70°
2026-04-24 20:26 45.08742 -67.39586 16940 ft 196 kts 70°
2026-04-24 20:26 45.09038 -67.37726 16941 ft 196 kts 70°
2026-04-24 20:26 45.09337 -67.35841 16936 ft 196 kts 70°
2026-04-24 20:27 45.09636 -67.33956 16938 ft 196 kts 70°
2026-04-24 20:27 45.09935 -67.32067 16937 ft 196 kts 70°
2026-04-24 20:27 45.10233 -67.30183 16934 ft 196 kts 70°
2026-04-24 20:27 45.10531 -67.28295 16934 ft 196 kts 70°
2026-04-24 20:28 45.10830 -67.26406 16936 ft 196 kts 70°
2026-04-24 20:28 45.11127 -67.24520 16931 ft 196 kts 70°
2026-04-24 20:28 45.11424 -67.22634 16925 ft 197 kts 70°
2026-04-24 20:28 45.11721 -67.20743 16926 ft 196 kts 70°
2026-04-24 20:29 45.11918 -67.19489 16929 ft 196 kts 70°
2026-04-24 20:29 45.12314 -67.16969 16925 ft 196 kts 70°
2026-04-24 20:29 45.12607 -67.15100 16923 ft 196 kts 71°
2026-04-24 20:29 45.12902 -67.13214 16923 ft 196 kts 71°
2026-04-24 20:30 45.13197 -67.11331 16922 ft 196 kts 71°
2026-04-24 20:30 45.13491 -67.09448 16925 ft 196 kts 71°
2026-04-24 20:30 45.13786 -67.07558 16925 ft 196 kts 71°
2026-04-24 20:30 45.14080 -67.05674 16923 ft 196 kts 71°
2026-04-24 20:31 45.14373 -67.03790 16918 ft 196 kts 71°
2026-04-24 20:31 45.14666 -67.01903 16920 ft 196 kts 71°
2026-04-24 20:31 45.14959 -67.00020 16918 ft 196 kts 71°
2026-04-24 20:31 45.15248 -66.98156 16917 ft 196 kts 71°
2026-04-24 20:32 45.15541 -66.96263 16913 ft 196 kts 71°
2026-04-24 20:32 45.15833 -66.94377 16914 ft 196 kts 71°
2026-04-24 20:32 45.16124 -66.92492 16913 ft 196 kts 71°
2026-04-24 20:32 45.16416 -66.90604 16912 ft 196 kts 72°
2026-04-24 20:33 45.16707 -66.88716 16911 ft 196 kts 71°
2026-04-24 20:33 45.16999 -66.86828 16915 ft 196 kts 72°
2026-04-24 20:33 45.17289 -66.84940 16912 ft 196 kts 72°
2026-04-24 20:33 45.17579 -66.83052 16908 ft 196 kts 72°
2026-04-24 20:34 45.17869 -66.81162 16908 ft 196 kts 72°
2026-04-24 20:34 45.18154 -66.79300 16909 ft 196 kts 72°
2026-04-24 20:34 45.18443 -66.77414 16912 ft 196 kts 72°
2026-04-24 20:34 45.18732 -66.75530 16913 ft 195 kts 72°
2026-04-24 20:35 45.19020 -66.73644 16911 ft 195 kts 72°
2026-04-24 20:35 45.19307 -66.71760 16912 ft 195 kts 72°
2026-04-24 20:35 45.19595 -66.69874 16911 ft 195 kts 72°
2026-04-24 20:35 45.19881 -66.67996 16914 ft 196 kts 72°
2026-04-24 20:36 45.20168 -66.66106 16913 ft 196 kts 72°
2026-04-24 20:36 45.20455 -66.64218 16915 ft 196 kts 72°
2026-04-24 20:36 45.20741 -66.62331 16919 ft 196 kts 72°
2026-04-24 20:36 45.21027 -66.60444 16915 ft 196 kts 72°
2026-04-24 20:37 45.21313 -66.58553 16917 ft 196 kts 72°
2026-04-24 20:37 45.21596 -66.56685 16912 ft 196 kts 73°
2026-04-24 20:37 45.21881 -66.54792 16914 ft 196 kts 72°
2026-04-24 20:37 45.22167 -66.52902 16918 ft 196 kts 73°
2026-04-24 20:38 45.22452 -66.51008 16919 ft 196 kts 73°
2026-04-24 20:38 45.22736 -66.49117 16918 ft 196 kts 73°
2026-04-24 20:38 45.23021 -66.47226 16917 ft 196 kts 73°
2026-04-24 20:38 45.23305 -66.45332 16917 ft 196 kts 73°
2026-04-24 20:39 45.23583 -66.43472 16918 ft 195 kts 73°
2026-04-24 20:39 45.23866 -66.41585 16918 ft 196 kts 73°
2026-04-24 20:39 45.24150 -66.39689 16920 ft 196 kts 73°
2026-04-24 20:39 45.24432 -66.37798 16920 ft 196 kts 73°
2026-04-24 20:40 45.24714 -66.35910 16919 ft 196 kts 73°
2026-04-24 20:40 45.24997 -66.34016 16917 ft 196 kts 73°
2026-04-24 20:40 45.25279 -66.32119 16917 ft 197 kts 73°
2026-04-24 20:40 45.25561 -66.30221 16915 ft 196 kts 73°
2026-04-24 20:41 45.25843 -66.28317 16914 ft 196 kts 73°
2026-04-24 20:41 45.26125 -66.26424 16913 ft 196 kts 74°
2026-04-24 20:41 45.26405 -66.24530 16912 ft 196 kts 74°
2026-04-24 20:41 45.26682 -66.22657 16911 ft 196 kts 74°
2026-04-24 20:42 45.26962 -66.20761 16907 ft 196 kts 74°
2026-04-24 20:42 45.27242 -66.18862 16908 ft 196 kts 74°
2026-04-24 20:42 45.27522 -66.16964 16908 ft 196 kts 74°
2026-04-24 20:42 45.27801 -66.15071 16908 ft 196 kts 74°
2026-04-24 20:43 45.28080 -66.13172 16909 ft 196 kts 74°
2026-04-24 20:43 45.28359 -66.11274 16907 ft 196 kts 74°
2026-04-24 20:43 45.28637 -66.09377 16910 ft 196 kts 74°
2026-04-24 20:43 45.28915 -66.07479 16905 ft 197 kts 74°
2026-04-24 20:44 45.29190 -66.05601 16904 ft 196 kts 74°
2026-04-24 20:44 45.29468 -66.03699 16901 ft 196 kts 74°
2026-04-24 20:44 45.29745 -66.01801 16903 ft 196 kts 75°
2026-04-24 20:44 45.30021 -65.99901 16902 ft 196 kts 75°
2026-04-24 20:45 45.30299 -65.97997 16902 ft 196 kts 75°
2026-04-24 20:45 45.30575 -65.96099 16901 ft 196 kts 75°
2026-04-24 20:45 45.30850 -65.94201 16904 ft 196 kts 75°
2026-04-24 20:45 45.31126 -65.92299 16901 ft 196 kts 75°
2026-04-24 20:46 45.31401 -65.90400 16902 ft 196 kts 75°
2026-04-24 20:46 45.31500 -65.88487 16896 ft 200 kts 93°
2026-04-24 20:46 45.31291 -65.87172 16898 ft 202 kts 100°
2026-04-24 20:46 45.30841 -65.84602 16899 ft 202 kts 99°
2026-04-24 20:47 45.30509 -65.82663 16904 ft 202 kts 99°
2026-04-24 20:47 45.30175 -65.80721 16903 ft 202 kts 99°
2026-04-24 20:47 45.29953 -65.79439 16900 ft 202 kts 99°
2026-04-24 20:47 45.29510 -65.76870 16901 ft 202 kts 99°
2026-04-24 20:48 45.29174 -65.74930 16903 ft 202 kts 99°
2026-04-24 20:48 45.28840 -65.72995 16904 ft 202 kts 99°
2026-04-24 20:48 45.28613 -65.71687 16904 ft 202 kts 99°
2026-04-24 20:48 45.28281 -65.69774 16904 ft 202 kts 99°
2026-04-24 20:49 45.27945 -65.67837 16905 ft 202 kts 100°
2026-04-24 20:49 45.27609 -65.65904 16907 ft 202 kts 100°
2026-04-24 20:49 45.27272 -65.63966 16908 ft 202 kts 100°
2026-04-24 20:49 45.26936 -65.62036 16909 ft 202 kts 100°
2026-04-24 20:50 45.26598 -65.60098 16909 ft 202 kts 100°
2026-04-24 20:50 45.26261 -65.58164 16908 ft 202 kts 100°
2026-04-24 20:50 45.25923 -65.56230 16904 ft 202 kts 100°
2026-04-24 20:50 45.25585 -65.54297 16907 ft 202 kts 100°
2026-04-24 20:51 45.25246 -65.52364 16908 ft 202 kts 100°
2026-04-24 20:51 45.24907 -65.50427 16908 ft 202 kts 100°
2026-04-24 20:51 45.24567 -65.48492 16910 ft 202 kts 100°
2026-04-24 20:51 45.24231 -65.46581 16907 ft 202 kts 100°
2026-04-24 20:52 45.23893 -65.44654 16907 ft 202 kts 100°
2026-04-24 20:52 45.23552 -65.42717 16909 ft 202 kts 100°
2026-04-24 20:52 45.23211 -65.40786 16907 ft 202 kts 100°
2026-04-24 20:52 45.22870 -65.38849 16908 ft 202 kts 101°
2026-04-24 20:53 45.22529 -65.36917 16907 ft 202 kts 101°
2026-04-24 20:53 45.22187 -65.34986 16910 ft 202 kts 101°
2026-04-24 20:53 45.21845 -65.33054 16904 ft 202 kts 101°
2026-04-24 20:53 45.21502 -65.31117 16905 ft 202 kts 101°
2026-04-24 20:54 45.21160 -65.29186 16903 ft 202 kts 101°
2026-04-24 20:54 45.20817 -65.27256 16903 ft 202 kts 101°
2026-04-24 20:54 45.20479 -65.25355 16903 ft 202 kts 101°
2026-04-24 20:54 45.20135 -65.23422 16901 ft 202 kts 101°
2026-04-24 20:55 45.19791 -65.21493 16900 ft 202 kts 101°
2026-04-24 20:55 45.19447 -65.19559 16898 ft 202 kts 101°
2026-04-24 20:55 45.19102 -65.17630 16897 ft 202 kts 101°
2026-04-24 20:55 45.18757 -65.15697 16895 ft 202 kts 101°
2026-04-24 20:56 45.18412 -65.13768 16900 ft 202 kts 101°
2026-04-24 20:56 45.18067 -65.11840 16897 ft 202 kts 101°
2026-04-24 20:56 45.17720 -65.09907 16897 ft 202 kts 101°
2026-04-24 20:56 45.17379 -65.08005 16896 ft 202 kts 101°
2026-04-24 20:57 45.17033 -65.06077 16892 ft 202 kts 101°
2026-04-24 20:57 45.16682 -65.04125 16893 ft 202 kts 101°
2026-04-24 20:57 45.16340 -65.02224 16894 ft 202 kts 101°
2026-04-24 20:57 45.15992 -65.00298 16895 ft 202 kts 101°
2026-04-24 20:58 45.15533 -64.98423 16887 ft 205 kts 119°
2026-04-24 20:58 45.14653 -64.96823 16883 ft 204 kts 115°
2026-04-24 20:58 45.14156 -64.94957 16887 ft 202 kts 107°
2026-04-24 20:58 45.13595 -64.93124 16886 ft 203 kts 113°
2026-04-24 20:59 45.12935 -64.91337 16891 ft 204 kts 115°
2026-04-24 20:59 45.12268 -64.89564 16891 ft 204 kts 114°
2026-04-24 20:59 45.11615 -64.87802 16891 ft 205 kts 114°
2026-04-24 20:59 45.10948 -64.85991 16894 ft 205 kts 114°
2026-04-24 21:00 45.10297 -64.84225 16893 ft 205 kts 114°
2026-04-24 21:00 45.09636 -64.82437 16893 ft 205 kts 114°
2026-04-24 21:00 45.08976 -64.80651 16893 ft 205 kts 114°
2026-04-24 21:00 45.08316 -64.78865 16888 ft 205 kts 114°
2026-04-24 21:01 45.07654 -64.77080 16890 ft 205 kts 114°
2026-04-24 21:01 45.06990 -64.75289 16891 ft 205 kts 114°
2026-04-24 21:01 45.06328 -64.73501 16888 ft 205 kts 114°
2026-04-24 21:01 45.05668 -64.71721 16890 ft 205 kts 114°
2026-04-24 21:02 45.05005 -64.69935 16889 ft 205 kts 114°
2026-04-24 21:02 45.04344 -64.68152 16886 ft 205 kts 114°
2026-04-24 21:02 45.03680 -64.66367 16890 ft 205 kts 114°
2026-04-24 21:02 45.03016 -64.64580 16887 ft 205 kts 114°
2026-04-24 21:03 45.02363 -64.62825 16885 ft 205 kts 114°
2026-04-24 21:03 45.01697 -64.61037 16831 ft 207 kts 114°
2026-04-24 21:03 45.01028 -64.59242 16888 ft 204 kts 114°
2026-04-24 21:03 45.00375 -64.57492 17017 ft 199 kts 115°
2026-04-24 21:04 44.99726 -64.55754 17031 ft 201 kts 114°
2026-04-24 21:04 44.99070 -64.53996 17033 ft 203 kts 114°
2026-04-24 21:04 44.98407 -64.52217 16949 ft 207 kts 114°
2026-04-24 21:04 44.97734 -64.50425 16807 ft 205 kts 114°
2026-04-24 21:05 44.97076 -64.48670 16671 ft 204 kts 114°
2026-04-24 21:05 44.96413 -64.46894 16428 ft 207 kts 114°
2026-04-24 21:05 44.95743 -64.45113 16134 ft 204 kts 114°
2026-04-24 21:05 44.95080 -64.43347 15836 ft 203 kts 114°
2026-04-24 21:06 44.94422 -64.41587 15519 ft 203 kts 115°
2026-04-24 21:06 44.93762 -64.39830 15211 ft 202 kts 115°
2026-04-24 21:06 44.93103 -64.38074 14904 ft 202 kts 114°
2026-04-24 21:06 44.92447 -64.36326 14593 ft 201 kts 115°
2026-04-24 21:07 44.91792 -64.34587 14290 ft 201 kts 116°
2026-04-24 21:07 44.91136 -64.32843 13993 ft 201 kts 116°
2026-04-24 21:07 44.90491 -64.31127 13702 ft 201 kts 116°
2026-04-24 21:07 44.89835 -64.29387 13370 ft 200 kts 116°
2026-04-24 21:08 44.89182 -64.27655 13032 ft 200 kts 116°
2026-04-24 21:08 44.88529 -64.25922 12699 ft 199 kts 116°
2026-04-24 21:08 44.87877 -64.24195 12368 ft 199 kts 116°
2026-04-24 21:08 44.87225 -64.22467 12046 ft 199 kts 117°
2026-04-24 21:09 44.86605 -64.20725 11724 ft 199 kts 110°
2026-04-24 21:09 44.86182 -64.18868 11408 ft 199 kts 105°
2026-04-24 21:09 44.85763 -64.17013 11092 ft 199 kts 107°
2026-04-24 21:09 44.85301 -64.15179 10775 ft 199 kts 108°
2026-04-24 21:10 44.84830 -64.13343 10471 ft 200 kts 109°
2026-04-24 21:10 44.84520 -64.12120 10272 ft 200 kts 109°
2026-04-24 21:10 44.84169 -64.10732 10059 ft 198 kts 108°
2026-04-24 21:10 44.83706 -64.08902 9784 ft 198 kts 108°
2026-04-24 21:11 44.83242 -64.07079 9483 ft 197 kts 108°
2026-04-24 21:11 44.82784 -64.05272 9186 ft 194 kts 108°
2026-04-24 21:11 44.82333 -64.03497 8929 ft 191 kts 108°
2026-04-24 21:11 44.81888 -64.01742 8678 ft 189 kts 107°
2026-04-24 21:12 44.81452 -64.00026 8437 ft 187 kts 107°
2026-04-24 21:12 44.81156 -63.98867 8269 ft 186 kts 107°
2026-04-24 21:12 44.80582 -63.96612 7948 ft 184 kts 106°
2026-04-24 21:12 44.80150 -63.94910 7707 ft 183 kts 107°
2026-04-24 21:13 44.79718 -63.93225 7467 ft 182 kts 106°
2026-04-24 21:13 44.79290 -63.91551 7226 ft 181 kts 106°
2026-04-24 21:13 44.78864 -63.89880 6986 ft 181 kts 106°
2026-04-24 21:13 44.78438 -63.88210 6747 ft 180 kts 106°
2026-04-24 21:14 44.78015 -63.86558 6513 ft 178 kts 105°
2026-04-24 21:14 44.77600 -63.84943 6280 ft 178 kts 105°
2026-04-24 21:14 44.77179 -63.83300 6034 ft 178 kts 105°
2026-04-24 21:14 44.76761 -63.81670 5804 ft 177 kts 105°
2026-04-24 21:15 44.76345 -63.80047 5573 ft 175 kts 105°
2026-04-24 21:15 44.75935 -63.78445 5343 ft 174 kts 105°
2026-04-24 21:15 44.75526 -63.76856 5124 ft 173 kts 105°
2026-04-24 21:15 44.75118 -63.75266 4893 ft 172 kts 105°
2026-04-24 21:16 44.74711 -63.73684 4667 ft 171 kts 105°
2026-04-24 21:16 44.74307 -63.72115 4438 ft 170 kts 104°
2026-04-24 21:16 44.73906 -63.70564 4220 ft 168 kts 105°
2026-04-24 21:16 44.73513 -63.69039 4007 ft 167 kts 105°
2026-04-24 21:17 44.73303 -63.67473 3783 ft 160 kts 82°
2026-04-24 21:17 44.73586 -63.65992 3573 ft 156 kts 59°
2026-04-24 21:17 44.74253 -63.64842 3369 ft 146 kts 37°
2026-04-24 21:17 44.74799 -63.64310 3238 ft 139 kts 32°
2026-04-24 21:18 44.75832 -63.63299 3026 ft 134 kts 33°
2026-04-24 21:18 44.76565 -63.62576 3006 ft 126 kts 34°
2026-04-24 21:18 44.77265 -63.61890 3003 ft 119 kts 34°
2026-04-24 21:18 44.77923 -63.61243 3001 ft 111 kts 33°
2026-04-24 21:19 44.78534 -63.60642 3002 ft 104 kts 33°
2026-04-24 21:19 44.79121 -63.60066 2959 ft 103 kts 34°
2026-04-24 21:19 44.79723 -63.59474 2785 ft 105 kts 34°
2026-04-24 21:19 44.80317 -63.58887 2604 ft 104 kts 34°
2026-04-24 21:20 44.81479 -63.57744 2238 ft 102 kts 34°
2026-04-24 21:20 44.82062 -63.57169 2033 ft 103 kts 34°
2026-04-24 21:20 44.82637 -63.56604 1819 ft 94 kts 33°
2026-04-24 21:21 44.83116 -63.56132 1612 ft 79 kts 34°
2026-04-24 21:21 44.83535 -63.55733 1519 ft 70 kts 32°
2026-04-24 21:21 44.83968 -63.55339 1419 ft 78 kts 32°
2026-04-24 21:21 44.84415 -63.54900 1300 ft 77 kts 33°
2026-04-24 21:22 44.84855 -63.54443 1100 ft 80 kts 34°
2026-04-24 21:22 44.85302 -63.54005 941 ft 77 kts 34°
2026-04-24 21:22 44.85727 -63.53561 816 ft 75 kts 32°
2026-04-24 21:22 44.86011 -63.53289 750 ft 74 kts 32°
2026-04-24 21:23 44.86570 -63.52734 599 ft 72 kts 33°
2026-04-24 21:23 44.86972 -63.52326 459 ft 67 kts 32°
2026-04-24 21:23 44.87260 -63.52048 442 ft 37 kts 37°
2026-04-24 21:23 44.87416 -63.51891 443 ft 15 kts 27°
2026-04-24 21:24 44.87445 -63.51964 444 ft 11 kts 263°
2026-04-24 21:24 44.87467 -63.52080 443 ft 15 kts 304°
2026-04-24 21:24 44.87440 -63.52189 446 ft 18 kts 210°
2026-04-24 21:24 44.87314 -63.52319 446 ft 27 kts 216°
2026-04-24 21:25 44.87147 -63.52483 446 ft 31 kts 215°
2026-04-24 21:25 44.86985 -63.52643 446 ft 23 kts 216°
2026-04-24 21:25 44.86872 -63.52755 446 ft 19 kts 212°
2026-04-24 21:25 44.86780 -63.52897 446 ft 20 kts 233°
2026-04-24 21:26 44.86727 -63.53021 446 ft 12 kts 283°
2026-04-24 21:26 44.86769 -63.53111 446 ft 11 kts 306°
2026-04-24 21:26 44.86825 -63.53199 446 ft 13 kts 312°
2026-04-24 21:26 44.86883 -63.53300 446 ft 13 kts 315°
2026-04-24 21:27 44.86961 -63.53313 446 ft 12 kts 28°
2026-04-24 21:27 44.87033 -63.53257 446 ft 12 kts 27°
2026-04-24 21:27 44.87097 -63.53210 446 ft 7 kts 17°
2026-04-24 21:27 44.87131 -63.53210 446 ft 8 kts 358°
2026-04-24 21:28 44.87200 -63.53185 446 ft 8 kts 17°
2026-04-24 21:28 44.87216 -63.53196 446 ft 3 kts 200°
2026-04-24 21:28 44.87214 -63.53197 446 ft 0 kts 200°